Probability
0 0 0 0 0 0 0 0 3 3 3 3 3 3 6 10 6 6 6 13 13 29 23 29 42 48 55 68 77 74 71 71 71 71 74 65 61 61 55 55 55 68 58 71
0 0 0 0 0 0 0 0 3 3 3 0 3 6 3 13 13 10 6 10 13 26 23 45 55 55 61 77 74 77 77 71 71 71 77 84 74 61 55 61 71 71 68 68
0 0 0 0 0 0 0 0 0 3 3 0 3 3 6 6 19 19 13 19 16 16 29 45 61 61 68 68 71 74 77 77 77 74 68 68 74 68 61 65 77 71 65 58
0 0 0 0 0 0 0 0 0 0 3 0 0 0 10 6 19 29 26 26 26 23 26 39 55 68 71 68 68 77 77 77 77 77 68 61 68 58 65 71 65 65 68 61
0 0 0 0 0 0 0 0 0 0 0 0 0 0 10 13 26 39 45 32 32 29 26 35 42 58 65 68 68 74 77 77 77 77 77 74 65 65 65 68 71 71 71 68
0 0 0 0 0 0 3 3 3 3 0 0 0 0 6 6 19 23 29 39 39 35 32 32 48 55 58 65 68 68 81 81 77 77 77 81 77 71 65 71 71 68 71 74
0 0 0 0 0 0 0 0 0 0 0 0 0 0 6 6 13 19 32 32 39 39 48 48 55 65 61 65 68 71 77 81 77 74 74 74 77 77 74 65 68 71 61 65
0 0 0 0 0 0 0 0 0 0 0 0 0 3 10 6 19 23 29 35 29 39 52 55 61 68 58 61 65 68 77 77 77 77 77 74 77 74 65 68 61 65 55 52
0 0 0 0 0 0 0 0 0 0 0 0 0 6 6 16 23 35 32 39 39 39 42 58 65 65 61 55 68 71 77 77 77 77 77 77 74 74 68 68 65 52 58 52
0 0 0 0 0 0 0 0 0 0 0 0 0 6 6 16 23 29 32 29 42 42 39 42 65 68 71 65 68 71 71 77 74 74 74 71 74 68 71 65 61 58 58 58
0 0 0 0 0 0 0 0 0 0 0 0 0 6 3 13 26 35 39 29 42 42 42 45 61 65 71 71 68 71 74 74 74 74 74 74 71 68 68 68 55 55 55 55
0 0 0 0 0 0 0 0 0 0 0 0 0 3 13 13 29 42 45 39 48 45 42 48 61 68 71 71 71 71 71 74 74 74 74 65 68 68 68 61 61 58 58 58
0 0 0 0 0 0 0 0 0 0 0 0 0 3 16 19 32 48 52 48 45 61 65 61 68 68 71 71 74 71 74 74 71 71 65 68 71 68 68 61 65 65 65 58
0 0 0 0 0 3 3 3 3 3 0 0 0 3 16 23 35 48 48 48 52 61 68 74 77 77 74 81 81 77 74 71 68 68 65 71 65 71 68 68 68 68 68 61
0 0 0 3 3 3 3 3 3 3 3 0 3 3 19 26 29 45 48 52 55 68 71 74 81 81 81 81 81 81 71 74 71 71 71 68 68 65 65 65 61 65 61 48
0 0 0 0 0 3 0 0 0 3 0 0 3 6 19 29 39 52 45 55 58 68 71 74 77 77 77 74 74 71 71 68 68 68 68 68 61 61 61 58 52 55 55 52
3 3 0 0 0 0 3 6 3 3 3 3 3 6 23 35 39 55 55 58 55 65 65 68 71 71 71 71 68 68 65 65 65 65 61 65 61 61 58 48 52 55 55 55
3 3 0 0 0 0 6 3 6 10 10 6 10 23 32 42 45 52 48 52 55 58 61 68 68 68 68 65 65 61 61 61 61 58 55 55 58 52 48 45 45 48 48 48
0 0 0 0 0 3 6 6 0 10 10 10 19 26 35 42 45 45 42 48 52 55 55 65 65 65 68 61 61 61 61 58 58 58 58 55 52 48 48 45 42 45 48 48
0 0 0 0 0 0 3 6 6 13 16 6 13 23 32 35 23 32 48 48 55 48 52 55 58 61 61 61 61 61 55 55 52 48 45 45 52 45 39 39 42 42 48 39
0 0 0 0 0 3 3 6 6 0 13 16 13 32 26 39 35 42 48 52 48 55 55 52 55 58 58 58 61 58 55 48 45 35 35 35 35 35 29 29 29 29 29 32
0 0 0 0 0 3 6 6 13 26 29 29 29 32 35 39 48 45 42 52 52 48 48 45 48 48 61 58 55 58 45 39 39 29 32 32 32 26 26 32 32 32 32 23
0 0 0 0 3 6 13 23 29 32 32 32 35 35 42 48 42 45 45 48 48 45 45 39 35 45 42 48 48 42 32 29 29 26 29 26 26 23 26 26 26 26 26 23
3 3 6 6 3 6 19 23 26 29 29 35 42 45 52 45 45 42 45 45 48 45 39 39 35 32 39 39 39 35 29 29 32 26 29 19 19 23 16 16 16 19 19 19
6 10 6 6 10 16 16 19 19 19 23 39 35 42 42 42 45 45 45 45 45 39 39 39 42 42 39 32 35 29 32 32 23 23 23 19 19 16 19 13 13 16 16 16
6 6 6 10 19 13 19 16 13 23 26 32 32 29 29 42 45 48 42 39 39 39 39 39 35 35 29 26 29 23 23 26 19 19 19 19 19 19 10 10 6 3 3 3
Height
5913 5917 5919 5922 5925 5928 5929 5931 5932 5932 5931 5932 5931 5931 5930 5929 5927 5926 5925 5923 5922 5920 5918 5917 5915 5914 5912 5911 5909 5908 5907 5905 5904 5903 5902 5901 5900 5899 5898 5897 5896 5897 5898 5897
5910 5913 5916 5919 5921 5924 5926 5928 5930 5930 5930 5931 5931 5931 5930 5929 5928 5927 5926 5924 5923 5921 5920 5918 5917 5915 5914 5912 5911 5910 5908 5907 5906 5905 5904 5903 5901 5900 5899 5899 5898 5898 5898 5898
5905 5909 5912 5915 5918 5920 5923 5925 5927 5928 5929 5930 5930 5931 5930 5929 5928 5927 5926 5925 5924 5922 5921 5920 5918 5917 5915 5914 5912 5911 5910 5909 5908 5906 5905 5904 5903 5902 5901 5900 5900 5899 5899 5898
5899 5903 5907 5910 5914 5917 5919 5922 5924 5926 5927 5928 5930 5931 5930 5929 5928 5927 5926 5925 5924 5923 5922 5921 5919 5918 5916 5915 5914 5912 5911 5910 5909 5908 5907 5905 5904 5903 5902 5901 5900 5900 5899 5898
5894 5898 5902 5906 5910 5913 5916 5918 5920 5922 5924 5926 5927 5929 5930 5928 5927 5927 5926 5925 5924 5923 5922 5921 5920 5919 5917 5916 5914 5913 5912 5911 5910 5909 5907 5906 5905 5904 5903 5901 5900 5900 5899 5898
5888 5893 5897 5901 5905 5908 5911 5915 5917 5919 5922 5924 5925 5926 5928 5926 5926 5926 5926 5925 5924 5923 5922 5921 5920 5919 5918 5916 5915 5913 5912 5911 5910 5909 5908 5907 5905 5904 5903 5902 5900 5899 5898 5897
5882 5886 5890 5895 5899 5902 5906 5911 5914 5916 5918 5920 5921 5922 5925 5924 5924 5924 5924 5924 5923 5923 5922 5921 5920 5919 5917 5916 5915 5913 5912 5911 5910 5909 5908 5906 5905 5903 5902 5901 5900 5899 5897 5896
5877 5881 5885 5889 5894 5897 5902 5907 5911 5914 5917 5918 5917 5918 5921 5921 5921 5922 5922 5922 5922 5921 5921 5920 5919 5918 5917 5915 5914 5913 5912 5911 5910 5909 5907 5906 5904 5903 5901 5900 5899 5898 5897 5895
5872 5876 5879 5884 5888 5893 5897 5901 5906 5910 5912 5914 5915 5915 5916 5917 5918 5919 5919 5920 5920 5919 5919 5918 5917 5916 5915 5914 5913 5912 5911 5910 5909 5908 5906 5905 5903 5901 5900 5899 5897 5896 5895 5894
5866 5870 5873 5878 5882 5886 5892 5896 5900 5904 5906 5909 5911 5911 5913 5913 5915 5916 5916 5917 5917 5917 5917 5916 5915 5915 5914 5913 5912 5911 5910 5909 5908 5906 5905 5904 5902 5900 5899 5897 5896 5895 5893 5892
5860 5865 5868 5872 5876 5881 5886 5890 5894 5898 5901 5905 5908 5910 5908 5909 5911 5912 5913 5913 5914 5914 5914 5913 5913 5912 5912 5911 5910 5909 5908 5907 5906 5905 5904 5902 5901 5899 5897 5895 5894 5893 5892 5890
5853 5859 5863 5867 5871 5875 5880 5884 5888 5892 5894 5898 5903 5907 5903 5904 5906 5908 5909 5909 5910 5910 5910 5910 5910 5910 5909 5909 5908 5907 5906 5906 5905 5903 5902 5900 5898 5897 5895 5894 5893 5891 5890 5888
5847 5852 5857 5861 5866 5869 5872 5877 5882 5886 5889 5892 5897 5901 5898 5899 5901 5903 5904 5905 5906 5907 5907 5907 5907 5907 5906 5906 5905 5905 5904 5903 5902 5901 5899 5897 5895 5894 5893 5892 5891 5890 5888 5886
5841 5846 5852 5857 5860 5863 5867 5871 5875 5879 5883 5886 5890 5893 5893 5894 5896 5898 5899 5900 5901 5902 5903 5903 5903 5903 5903 5903 5903 5902 5902 5901 5900 5899 5897 5895 5893 5892 5891 5890 5888 5887 5885 5883
5834 5840 5845 5849 5853 5857 5861 5865 5869 5873 5877 5881 5884 5886 5887 5889 5891 5892 5894 5895 5897 5898 5899 5899 5899 5900 5900 5899 5899 5899 5898 5898 5897 5895 5894 5892 5891 5889 5888 5887 5885 5883 5882 5880
5828 5833 5838 5842 5846 5850 5854 5858 5862 5866 5870 5873 5877 5879 5881 5883 5885 5887 5889 5890 5892 5893 5894 5895 5895 5896 5896 5896 5895 5895 5894 5894 5893 5891 5890 5889 5887 5886 5884 5883 5882 5880 5878 5876
5821 5827 5832 5836 5840 5843 5847 5851 5855 5859 5863 5867 5870 5873 5875 5877 5879 5881 5883 5885 5886 5888 5889 5890 5891 5891 5891 5892 5891 5891 5890 5890 5889 5887 5886 5884 5883 5882 5881 5879 5878 5876 5874 5872
5815 5820 5824 5829 5833 5836 5842 5845 5849 5852 5856 5859 5862 5866 5868 5870 5873 5875 5877 5879 5881 5882 5883 5885 5886 5886 5887 5887 5887 5886 5886 5885 5885 5883 5882 5880 5879 5878 5876 5875 5873 5871 5869 5867
5808 5813 5818 5822 5825 5829 5834 5837 5841 5845 5848 5852 5855 5858 5861 5864 5866 5868 5870 5872 5874 5876 5877 5878 5879 5880 5881 5881 5881 5881 5881 5880 5879 5878 5876 5875 5874 5872 5871 5869 5868 5866 5864 5862
5801 5806 5811 5815 5819 5822 5827 5831 5834 5838 5841 5844 5847 5851 5854 5857 5860 5863 5864 5866 5868 5870 5871 5872 5873 5874 5875 5876 5875 5875 5875 5874 5873 5872 5870 5869 5868 5867 5865 5864 5862 5860 5859 5857
5794 5798 5802 5807 5811 5814 5819 5823 5827 5832 5835 5837 5840 5843 5847 5850 5853 5856 5857 5860 5862 5864 5865 5866 5867 5868 5869 5869 5869 5869 5869 5868 5867 5866 5865 5863 5862 5860 5859 5858 5856 5854 5853 5851
5787 5791 5795 5799 5804 5809 5811 5815 5819 5823 5826 5829 5832 5836 5839 5842 5845 5847 5850 5852 5855 5856 5858 5859 5860 5862 5862 5863 5863 5863 5862 5862 5861 5860 5859 5857 5856 5854 5853 5851 5850 5848 5847 5845
5779 5784 5787 5792 5797 5800 5803 5807 5810 5814 5818 5821 5824 5827 5831 5834 5837 5840 5843 5845 5847 5849 5851 5852 5853 5854 5855 5856 5856 5856 5856 5855 5854 5853 5852 5851 5850 5848 5847 5845 5844 5842 5840 5839
5771 5775 5779 5783 5787 5791 5795 5798 5802 5806 5809 5812 5816 5819 5822 5826 5829 5832 5835 5837 5840 5842 5843 5845 5846 5847 5848 5849 5849 5849 5849 5848 5848 5847 5846 5844 5843 5842 5840 5839 5838 5836 5835 5833
5763 5767 5770 5775 5779 5782 5786 5790 5794 5797 5801 5804 5808 5811 5814 5818 5821 5824 5827 5830 5832 5834 5836 5838 5839 5840 5841 5842 5842 5842 5842 5841 5841 5840 5839 5838 5837 5836 5834 5833 5832 5830 5829 5827
5755 5759 5762 5766 5770 5774 5778 5781 5785 5789 5792 5796 5799 5803 5806 5809 5813 5816 5819 5822 5824 5827 5829 5830 5832 5833 5834 5835 5835 5835 5835 5835 5834 5834 5833 5832 5830 5829 5828 5826 5825 5823 5822 5820
Wind_Speed
21 20 19 16 13 12 10 8 7 5 3 1 1 2 4 5 6 8 10 10 11 11 11 10 10 11 11 10 10 9 10 10 9 9 9 8 8 7 6 5 5 3 4 4
23 23 21 19 17 15 13 11 9 8 5 4 3 2 2 3 5 7 8 9 9 9 9 9 9 10 10 10 9 9 8 8 8 8 8 8 7 7 6 5 4 3 2 2
25 25 23 22 20 18 16 13 12 10 7 6 5 4 3 3 3 5 7 7 8 9 8 8 9 9 9 10 9 8 8 7 7 7 7 7 7 6 6 5 4 3 3 3
28 27 25 24 22 20 18 17 15 13 10 9 7 6 6 5 4 5 5 6 7 7 7 7 7 8 9 9 8 8 8 7 6 6 6 6 6 6 5 5 5 4 4 4
31 29 27 26 24 22 21 19 17 15 13 12 10 8 9 7 6 5 5 5 6 7 7 6 7 7 8 8 8 7 7 7 7 6 6 6 6 6 6 5 5 5 5 4
31 30 29 28 26 25 24 21 19 17 15 15 13 11 10 9 7 6 6 6 6 6 6 6 6 7 7 8 8 7 6 6 6 6 7 7 7 7 7 6 6 5 5 5
32 32 31 29 28 27 25 23 20 19 18 17 16 15 12 11 9 8 7 7 6 6 6 7 7 7 7 8 8 7 7 7 7 7 7 6 7 7 8 8 8 7 7 6
32 32 32 31 29 28 26 24 22 19 18 17 18 17 14 13 11 10 10 8 7 7 7 7 8 8 8 8 8 8 8 7 8 8 8 7 7 8 9 9 9 9 9 8
32 32 32 32 31 30 28 27 24 21 19 18 19 19 16 15 14 12 11 10 10 9 8 9 9 9 9 9 10 9 9 9 9 9 9 9 10 10 10 10 10 10 10 10
32 33 32 32 32 32 30 28 26 24 22 20 20 20 18 16 15 14 13 12 11 10 10 10 10 10 10 10 10 10 9 10 10 9 10 11 11 12 11 11 11 10 10 11
32 33 32 33 33 32 31 29 28 27 25 21 19 20 19 17 16 16 15 14 13 12 12 12 11 11 11 10 10 10 9 10 10 11 12 12 12 12 12 11 11 10 11 11
32 32 32 32 32 32 31 30 29 28 27 25 21 20 21 18 17 17 16 15 14 14 13 13 12 12 12 11 10 10 10 11 11 12 13 13 13 12 11 11 11 11 11 12
32 32 31 31 32 32 32 31 30 28 27 25 22 22 23 20 19 18 18 17 16 15 14 14 14 13 12 12 11 11 11 12 12 13 14 14 14 12 11 11 12 12 13 14
32 32 31 30 30 32 32 31 30 29 28 26 24 23 24 22 20 19 19 18 17 16 16 15 15 14 14 13 13 13 13 13 13 13 14 14 14 13 12 12 13 14 15 15
32 32 32 31 31 31 32 31 31 30 29 26 25 25 24 22 20 19 18 18 17 17 17 16 16 15 15 15 15 15 15 15 14 14 14 15 16 15 14 14 15 15 16 16
32 32 32 32 32 31 32 32 31 31 29 28 26 26 24 22 20 20 20 19 18 18 18 18 17 17 17 17 16 16 16 16 16 16 16 16 17 17 16 16 16 17 17 18
32 32 31 31 32 32 33 32 31 31 30 29 28 27 26 24 22 21 20 20 20 19 19 19 19 18 18 18 18 18 18 17 17 17 18 18 18 19 19 18 18 19 19 19
33 32 31 30 31 33 33 32 31 31 31 30 29 28 27 25 24 23 22 21 21 21 20 21 21 21 20 20 20 20 19 20 20 20 20 20 20 20 21 20 20 20 20 20
33 32 31 31 31 32 33 32 31 31 31 30 30 29 28 26 25 24 24 23 23 23 22 22 23 22 22 21 21 21 21 21 21 22 21 21 21 21 22 21 21 21 21 21
33 33 32 32 31 32 33 31 30 30 31 31 30 29 28 27 26 25 25 24 24 24 23 23 22 22 22 22 22 21 22 22 22 22 22 22 23 22 22 22 22 22 22 22
32 33 33 33 32 32 33 32 31 31 30 30 30 30 29 28 27 27 26 25 25 25 24 24 23 22 22 22 22 21 22 22 23 24 24 24 24 23 23 24 24 23 23 22
32 33 34 33 33 33 33 31 31 31 30 30 30 30 30 29 29 27 27 26 26 26 26 25 24 24 23 23 22 23 23 23 23 23 24 24 23 23 24 24 24 24 23 23
33 33 34 35 34 34 33 32 31 31 31 30 30 30 30 30 29 28 27 27 27 27 28 27 26 25 25 24 23 24 23 23 23 22 23 24 23 23 23 23 23 23 23 23
33 33 34 34 34 34 33 33 32 32 32 31 31 31 31 30 30 29 29 28 28 28 28 28 28 27 26 25 24 24 23 23 22 22 23 23 22 22 22 22 22 22 22 22
33 33 34 34 34 34 34 33 33 32 32 31 31 32 31 31 30 29 28 28 28 28 28 28 27 26 25 25 24 24 24 23 23 23 23 23 23 23 23 23 22 22 23 23
32 32 33 35 35 35 35 34 34 33 32 32 31 31 31 31 30 30 29 29 28 28 28 28 27 26 26 26 25 25 24 24 24 24 24 24 24 24 23 23 23 23 23 24
Wind_Direction
223 223 224 227 222 219 223 224 227 226 228 229 325 2 12 20 24 25 22 21 22 24 30 35 37 37 38 41 43 43 49 53 59 64 64 63 62 58 59 64 69 84 83 81
226 226 226 227 225 224 225 223 227 230 234 241 262 300 343 4 12 14 14 15 16 18 23 27 31 31 32 34 36 41 47 52 54 57 57 56 55 52 53 57 58 59 54 41
228 229 229 229 229 228 230 227 229 232 236 242 252 277 294 314 339 355 4 10 12 12 17 21 23 24 25 27 29 33 39 43 45 48 49 49 46 44 42 41 37 31 13 2
227 229 229 230 231 231 232 231 232 234 238 245 248 258 278 286 300 326 344 359 3 7 12 13 10 12 15 18 21 26 30 31 30 31 34 35 39 37 30 23 21 16 6 357
228 228 228 228 229 230 232 233 235 238 241 244 249 245 262 275 283 300 320 337 346 352 357 360 1 5 5 7 9 12 18 20 20 17 16 16 17 18 14 6 1 355 350 341
229 227 227 227 228 228 230 232 235 239 242 244 248 247 251 265 270 279 294 310 324 335 339 344 348 354 357 358 358 357 0 2 4 4 5 6 4 359 355 353 345 338 332 327
228 226 225 226 226 227 227 228 232 237 240 243 248 248 245 253 259 268 278 291 302 315 320 325 329 336 342 347 350 348 347 350 352 351 349 348 349 350 348 347 345 341 334 325
228 227 225 225 226 228 227 227 227 232 240 246 250 249 249 249 255 262 268 277 285 293 303 311 317 323 329 333 340 340 338 335 337 338 338 333 328 334 335 336 336 333 328 326
225 227 226 225 226 227 228 227 229 235 237 238 248 252 252 249 252 257 263 270 277 280 288 297 305 310 317 326 328 330 333 328 326 326 329 326 324 325 325 325 325 321 320 315
224 226 226 225 226 227 228 229 229 231 236 240 247 252 252 250 250 255 260 265 270 276 281 289 295 297 304 312 317 320 326 329 328 325 321 323 325 326 323 321 322 315 313 310
224 226 227 225 225 226 227 228 231 235 237 238 245 253 252 248 248 251 256 260 262 269 275 279 283 287 294 302 308 311 314 318 321 323 320 318 317 318 318 319 316 313 314 315
222 223 227 227 227 227 228 230 232 235 240 239 238 248 251 247 247 249 251 256 258 263 266 269 271 278 285 291 298 301 304 308 312 317 317 313 309 306 309 313 317 317 317 322
221 222 224 226 227 227 228 229 232 235 239 241 240 244 249 249 248 248 249 253 255 257 260 263 265 270 277 282 288 293 298 302 307 310 312 310 306 303 306 310 314 316 315 315
221 223 222 225 228 229 229 229 231 233 236 240 240 242 249 249 249 250 249 249 252 253 257 260 263 266 269 272 279 287 294 298 302 304 307 306 306 305 306 307 310 312 313 312
221 222 223 224 228 230 231 231 231 233 234 237 241 243 247 247 247 248 248 247 249 251 253 258 263 264 268 271 276 281 288 293 295 295 299 301 300 301 302 304 306 308 310 310
221 222 224 225 227 230 231 231 232 233 235 237 239 241 244 245 244 244 244 246 247 250 251 254 258 261 265 270 274 279 282 286 289 289 292 296 300 300 299 301 303 305 306 307
221 223 225 228 229 230 232 231 232 234 235 238 239 241 246 247 245 244 244 244 247 250 251 251 254 259 262 268 272 276 279 283 287 288 289 291 293 294 296 299 299 300 302 304
222 223 225 228 229 230 232 233 233 235 236 238 240 243 246 248 247 245 244 245 246 248 248 250 252 255 261 266 271 276 278 281 283 286 287 288 291 292 293 294 296 298 300 301
223 224 227 229 231 233 233 233 234 235 237 238 240 242 244 245 246 246 245 245 246 247 249 252 255 257 261 265 269 272 275 277 280 283 285 287 289 289 290 290 291 293 296 299
224 225 228 230 231 234 235 234 235 236 237 238 240 242 243 243 243 244 245 244 246 247 252 255 256 257 261 265 269 271 273 275 277 281 285 287 287 287 288 288 288 289 292 296
224 225 227 230 233 236 236 235 235 236 238 238 239 240 241 242 243 244 244 245 247 249 252 254 255 257 260 264 268 270 274 274 275 279 284 287 286 286 287 287 286 287 289 292
225 227 228 230 232 236 236 236 235 236 237 238 239 239 240 241 242 243 242 244 246 248 250 251 253 256 259 263 267 269 272 276 279 280 283 285 286 286 287 286 285 286 287 289
227 228 230 231 233 236 237 237 237 236 236 237 237 237 238 238 239 241 242 244 246 247 249 251 252 254 257 262 268 271 273 276 279 280 283 284 285 286 287 286 286 285 286 288
229 230 231 232 232 234 236 236 236 236 238 238 238 238 239 240 241 242 243 245 247 248 248 250 253 255 258 263 269 271 273 275 277 280 283 286 286 285 285 285 286 286 287 289
231 233 234 234 234 234 235 235 236 236 238 239 239 240 240 240 241 242 241 243 245 246 248 251 254 258 259 262 268 270 271 272 275 278 282 283 283 283 283 283 283 284 286 288
232 233 234 234 233 234 234 235 236 236 237 238 239 240 240 240 241 241 241 243 244 246 248 251 254 257 261 264 268 269 268 270 273 277 279 280 281 282 282 281 282 283 285 288